Location: ????????
(60.4333°N, 46.4710°E)
Time: 19:46:37
(UTC+00:00)

CZ-4B R/B - Pass Details

Date: 25 November 2020
Orbit: 809 x 881 km, 99.1° (Epoch: 16 January)

Event Time Altitude Azimuth Distance (km) Brightness Sun altitude
Rises 14:02:45 0° 166° (SSE) 3,348 6.4 -13.5°
Reaches altitude 10° 14:05:07 10° 169° (S) 2,412 5.7 -13.8°
Maximum altitude 14:10:26 71° 254° (WSW) 865 3.4 -14.4°
Drops below altitude 10° 14:15:45 10° 338° (NNW) 2,411 5.6 -15.0°
Sets 14:18:06 0° 341° (NNW) 3,347 6.4 -15.3°
